This is the latest recevied weather packets stored in our database for station/object OK1FET-14. If no packets are shown the sender has not sent any weather packets the latest 1 day(s).
| Time | Temp. | Humidity | Pressure | Rain* | Wind** | Luminosity | Snow |
|---|---|---|---|---|---|---|---|
| 1778098986 | 12.78° C | 88% | 1007.5 hPa | - | - | - | - |
| 1778098706 | 12.22° C | 90% | 1007.5 hPa | - | - | - | - |
| 1778098706 | 12.22° C | 90% | 1007.5 hPa | - | - | - | - |
| 1778097585 | 13.33° C | 85% | 1007.1 hPa | - | - | - | - |
| 1778097585 | 13.33° C | 85% | 1007.1 hPa | - | - | - | - |
| 1778097585 | 13.33° C | 85% | 1007.1 hPa | - | - | - | - |
| 1778097585 | 13.33° C | 85% | 1007.1 hPa | - | - | - | - |
| 1778097305 | 12.78° C | 86% | 1007 hPa | - | - | - | - |
| 1778097305 | 12.78° C | 86% | 1007 hPa | - | - | - | - |
| 1778097305 | 12.78° C | 86% | 1007 hPa | - | - | - | - |
| 1778097305 | 12.78° C | 86% | 1007 hPa | - | - | - | - |
| 1778097025 | 12.78° C | 86% | 1007 hPa | - | - | - | - |
| 1778095904 | 13.33° C | 82% | 1007.3 hPa | - | - | - | - |
| 1778095624 | 13.33° C | 83% | 1007.1 hPa | - | - | - | - |
| 1778095624 | 13.33° C | 83% | 1007.1 hPa | - | - | - | - |
| 1778094503 | 12.78° C | 85% | 1006.8 hPa | - | - | - | - |
| 1778094503 | 12.78° C | 85% | 1006.8 hPa | - | - | - | - |
| 1778094223 | 12.78° C | 87% | 1006.9 hPa | - | - | - | - |
| 1778094223 | 12.78° C | 87% | 1006.9 hPa | - | - | - | - |
| 1778093386 | 12.78° C | 84% | - | - | - | - | - |
| 1778093386 | 12.78° C | 84% | 1006.3 hPa | - | - | - | - |
| 1778093106 | 12.78° C | 84% | 1006.3 hPa | - | - | - | - |
| 1778093106 | 12.78° C | 84% | 1006.3 hPa | - | - | - | - |
| 1778092826 | 12.22° C | 84% | 1006.3 hPa | - | - | - | - |
| 1778092822 | 12.22° C | 84% | 1006.3 hPa | - | - | - | - |
* Rain since midnight (hover to see other rain measurements)
** Current wind speed in m/s (hover to see current wind gust speed)